Wind_Speed
9 8 8 11 13 11 9 2 1 2 2 3 5 3 6 8 7 4 3 7 7 6 10 12 12 13 13 11 14 14 10 6 3 4 3 6 18 21 20 23 22 21 23 21 20 19 16 14 13 14 13 12 12 12 13 12 13 13 15 14 14 15 15 15 15 14 12 12 12 12 11 11 12 11 12 13 13 13 12 12 12 13 13 14 15 15 14 13 13 13 13 15 17 16 15 16 18
9 10 10 12 13 7 3 2 1 2 2 4 6 4 8 8 4 2 7 8 7 8 11 13 14 16 18 14 15 17 13 12 11 8 8 17 21 18 19 21 20 21 22 21 20 18 16 15 13 13 12 12 11 12 13 13 13 14 16 15 15 16 16 16 15 14 13 12 12 12 11 11 11 11 11 12 12 12 11 11 12 13 13 13 14 14 13 12 12 12 12 15 17 15 15 15 18
9 10 10 10 6 5 1 1 1 2 2 5 6 4 8 7 2 7 13 11 10 12 13 15 15 10 14 15 13 14 10 10 14 10 9 17 15 13 19 19 20 21 22 21 19 18 16 14 13 13 12 11 11 12 12 13 13 14 16 16 16 17 16 16 16 15 13 12 12 12 11 10 10 10 11 12 12 11 11 11 12 13 13 12 13 13 13 12 12 12 12 14 16 15 15 16 19
10 9 9 7 2 2 1 0 3 2 3 5 5 4 6 1 8 10 13 11 10 11 12 14 12 6 13 17 10 10 9 8 13 11 6 9 13 16 18 17 20 22 22 21 19 18 16 14 13 13 12 12 11 11 12 12 13 13 16 16 16 17 17 17 17 15 13 13 12 12 11 10 10 10 11 12 12 11 11 11 12 13 14 12 12 12 12 12 11 11 11 14 15 15 16 18 20
10 8 8 5 0 0 0 1 2 3 5 4 4 3 4 7 12 9 9 9 9 11 13 12 9 7 13 11 5 6 8 9 14 14 9 10 19 20 17 17 19 20 20 20 19 18 16 14 13 13 13 12 12 11 11 11 12 13 14 15 15 17 18 18 18 16 14 13 12 12 11 11 10 10 11 12 11 11 11 11 12 13 13 12 11 11 12 12 11 11 11 13 15 14 16 18 20
9 8 7 5 2 2 0 2 3 5 6 5 6 4 1 7 9 8 8 8 9 13 14 13 12 12 11 8 7 6 8 10 11 12 11 14 20 20 18 19 18 19 19 19 19 18 16 14 13 13 13 12 11 10 10 10 10 12 13 14 15 17 17 18 18 16 14 13 13 12 12 11 10 10 11 13 12 11 11 11 12 12 12 11 11 10 11 11 10 11 11 13 14 14 16 16 18
7 5 3 3 2 2 1 3 4 5 7 7 8 7 3 6 8 8 8 7 8 12 14 13 13 13 8 6 7 12 19 18 13 13 16 18 20 19 19 19 19 19 18 19 20 18 16 14 13 13 13 13 11 10 9 9 9 10 12 13 15 16 17 18 18 16 14 13 13 12 11 10 11 11 12 13 13 12 11 10 11 11 11 10 10 10 10 10 10 10 10 12 13 13 14 15 16
8 4 1 1 1 2 2 4 5 5 8 7 9 7 5 7 8 8 7 5 3 6 13 13 16 15 7 7 8 14 26 26 22 22 22 20 20 18 17 18 19 19 17 19 20 19 16 14 13 13 13 13 12 10 9 9 9 9 10 13 14 15 17 17 17 15 14 13 12 12 11 11 11 12 12 13 13 13 11 9 10 10 9 9 9 9 9 10 10 9 10 11 12 13 13 14 15
8 4 1 1 1 2 3 4 5 7 10 9 10 5 6 6 6 9 6 6 4 6 13 12 17 16 8 12 11 11 20 27 28 24 21 20 20 18 16 17 17 18 17 19 20 19 17 15 13 12 13 13 13 12 11 11 10 9 10 12 13 15 17 16 16 14 13 13 12 12 12 11 12 12 12 12 12 12 11 10 10 9 8 8 8 8 8 9 9 9 9 10 12 13 13 14 14
4 4 1 1 2 4 4 5 5 8 10 10 11 6 6 6 5 7 6 8 8 10 15 14 17 17 12 11 9 9 18 28 29 22 21 20 18 17 16 16 16 16 16 19 21 19 17 15 13 11 11 11 12 12 12 12 12 11 11 13 14 15 16 15 15 13 12 12 11 11 12 12 12 12 12 11 12 12 11 10 10 10 9 8 7 7 7 8 8 8 8 10 12 13 13 13 14
1 3 2 1 3 4 4 5 6 7 10 10 8 7 6 6 4 5 7 9 10 14 16 15 15 16 14 10 5 13 23 28 28 24 23 21 19 18 16 15 15 16 17 20 20 19 17 15 13 11 11 10 11 12 12 12 12 12 12 13 14 15 15 14 14 13 12 11 10 11 11 12 12 12 12 11 11 11 11 10 10 10 9 8 7 6 6 7 8 7 8 10 12 13 13 13 13
2 3 1 2 3 4 5 5 8 8 10 9 5 4 5 6 5 5 7 9 10 11 13 14 12 13 13 8 5 15 23 26 29 27 25 23 21 19 17 15 14 14 16 19 19 18 16 14 13 10 10 10 11 12 12 13 13 12 12 12 13 14 13 14 14 13 12 12 11 11 11 12 12 11 11 11 11 10 10 9 9 10 9 8 6 5 5 6 7 7 7 9 12 13 13 13 13
3 3 1 3 4 4 6 6 8 8 7 6 5 5 5 6 5 4 7 10 8 4 10 17 13 13 12 7 7 12 17 23 29 28 26 24 22 20 18 16 14 12 13 16 18 16 15 13 12 10 9 9 10 11 11 12 12 12 12 12 12 12 13 13 14 13 12 12 12 12 12 11 11 10 10 10 10 9 8 8 8 9 9 8 7 5 5 6 7 7 7 8 11 13 12 12 13
4 3 2 3 4 4 5 6 6 6 6 6 5 6 4 3 5 5 8 11 10 7 13 18 15 14 11 8 8 7 12 23 29 28 26 25 23 21 19 18 16 14 12 13 15 14 13 12 11 9 8 9 9 10 10 10 11 12 11 11 12 12 12 13 13 13 13 13 12 12 11 10 9 9 10 9 8 8 7 7 8 8 9 8 7 6 6 6 7 7 8 9 11 12 12 11 12
5 2 2 3 4 5 5 6 7 6 6 5 1 7 5 2 6 10 10 11 10 9 13 16 13 10 11 11 9 8 16 26 29 29 28 25 23 22 20 18 17 16 14 12 12 13 13 11 10 9 8 8 9 9 9 10 10 11 10 9 10 11 12 14 13 13 13 13 12 11 10 10 9 8 8 8 8 7 6 6 7 8 8 8 7 6 6 6 7 7 8 10 12 12 11 10 10
4 2 1 2 4 5 4 5 6 7 5 1 2 6 6 5 9 10 10 11 8 9 11 8 6 9 11 11 14 18 26 29 28 28 27 25 23 21 19 18 17 15 14 14 12 11 12 12 10 8 8 7 7 9 9 10 10 10 10 9 9 9 11 14 14 13 12 12 10 10 10 9 9 8 7 7 7 7 6 6 8 8 8 8 7 6 6 6 7 8 9 10 11 11 10 9 8
3 3 2 4 4 5 5 4 2 4 4 4 4 4 7 7 9 6 7 12 11 13 13 9 7 11 13 15 24 30 32 31 27 26 24 22 22 20 19 19 18 16 14 13 13 12 11 11 11 9 7 6 7 9 10 10 10 10 10 9 9 8 8 9 11 11 10 10 9 9 9 9 9 8 8 7 7 7 6 6 8 8 8 7 7 6 6 7 8 9 10 10 10 10 9 8 7
3 3 3 4 5 6 6 5 3 1 2 2 5 3 6 8 6 2 5 11 13 16 14 15 16 14 18 24 31 33 33 32 28 27 23 20 20 18 18 17 17 16 15 14 13 12 12 12 12 11 8 7 8 9 9 10 11 10 9 9 9 8 8 7 8 8 8 8 8 9 9 8 8 7 8 8 7 7 6 7 9 9 8 7 7 7 6 8 9 10 10 10 10 9 9 8 7
3 2 3 5 5 8 7 8 7 3 1 4 4 5 5 6 4 3 5 9 11 15 13 16 18 15 18 23 27 29 30 30 28 26 21 17 18 18 16 15 15 14 13 13 12 12 12 12 13 13 10 8 8 8 8 10 12 11 9 9 8 8 8 8 7 6 7 7 8 9 9 8 7 8 8 8 8 7 7 8 9 9 8 7 7 6 7 8 9 10 11 10 10 10 9 9 8
4 3 2 6 8 10 8 9 8 4 4 5 4 5 5 6 4 2 6 8 8 13 13 14 16 15 15 15 19 24 24 24 23 21 19 17 18 18 17 17 17 14 11 11 11 12 12 12 11 11 10 9 8 8 9 11 13 12 11 10 9 9 8 8 7 6 6 6 8 9 9 10 9 9 9 9 10 9 9 10 10 10 8 7 7 6 7 8 8 9 10 11 11 11 9 8 8
3 4 5 7 7 9 7 6 6 4 5 5 6 5 5 6 4 4 6 6 4 8 15 18 19 19 18 14 14 18 18 15 16 18 19 18 17 18 19 20 19 15 11 9 8 9 11 12 11 9 8 8 7 8 10 11 14 14 13 11 11 10 10 10 8 8 9 9 9 10 10 11 11 11 10 10 11 11 12 13 12 11 9 8 7 7 7 8 9 10 11 11 11 11 10 8 7
3 6 10 10 7 8 5 7 10 8 6 6 5 4 2 3 3 5 7 5 2 3 13 21 20 19 18 16 13 13 11 9 12 16 18 19 18 19 21 21 20 17 12 9 7 6 7 8 9 9 8 7 6 8 10 11 13 15 14 13 12 11 11 12 10 10 12 10 10 12 11 11 11 12 12 11 12 12 13 14 13 12 10 8 8 8 7 8 10 11 12 12 12 11 11 9 8
4 6 9 11 11 9 2 5 8 9 8 7 3 1 1 2 2 4 6 6 4 6 12 19 18 18 19 16 13 10 9 8 11 15 18 19 19 19 22 22 20 18 14 11 7 7 8 7 7 9 10 7 7 9 9 9 12 13 14 13 12 11 10 11 10 11 11 8 9 11 11 11 11 11 12 12 12 13 12 13 14 13 11 9 9 10 9 10 11 12 12 12 13 12 12 11 10
7 6 8 9 10 8 2 5 6 7 7 7 5 2 1 3 3 2 6 8 13 19 19 20 18 18 18 13 11 10 9 10 13 18 20 20 19 19 21 22 21 18 15 11 8 8 11 10 10 10 10 9 9 9 8 8 9 9 11 12 12 10 9 9 10 11 8 5 6 8 9 10 10 10 11 11 11 12 14 14 15 13 12 11 11 12 11 11 12 11 11 11 11 11 12 11 12
8 7 6 6 6 3 7 6 4 3 4 5 7 5 4 0 3 3 6 8 15 22 20 19 18 15 14 12 11 10 9 11 14 18 20 20 21 21 21 22 20 18 15 10 7 7 8 9 10 10 9 10 10 9 10 11 11 10 7 9 10 9 8 7 8 11 7 4 5 5 6 8 9 9 9 9 9 11 15 16 15 13 13 14 14 14 12 12 13 12 11 10 10 10 9 10 12
8 7 5 6 4 2 7 6 3 2 2 3 5 4 7 4 3 2 5 8 10 19 21 18 17 15 13 12 11 10 9 10 14 18 20 23 24 23 22 21 19 17 14 11 9 8 8 7 9 9 7 9 12 12 11 12 12 13 11 9 7 6 7 7 7 9 7 4 4 3 3 5 6 7 7 7 8 10 13 15 17 17 16 16 16 17 16 14 14 13 13 12 12 11 9 9 13
6 5 6 5 0 1 4 6 4 4 2 2 1 3 6 6 3 2 2 6 7 14 20 18 16 15 13 12 10 9 9 11 17 20 20 20 22 22 21 19 19 16 14 12 11 11 10 10 9 9 8 10 14 14 13 12 11 11 13 12 11 8 5 5 7 9 8 5 5 5 4 4 5 6 7 7 9 9 10 10 14 20 20 18 15 16 17 16 16 16 16 16 16 15 12 12 14
3 1 4 5 1 2 3 6 1 3 3 5 3 2 4 5 2 5 5 4 7 10 15 17 15 13 13 12 10 7 8 14 21 21 17 17 20 21 20 19 18 15 13 13 12 12 12 12 11 9 10 12 13 14 14 13 11 12 13 12 11 10 8 6 5 7 8 4 3 4 3 4 4 6 8 9 10 9 10 10 13 19 23 22 16 15 15 14 17 18 17 18 19 17 13 14 15
2 2 3 6 3 2 5 6 3 3 4 5 4 1 5 5 6 7 8 6 7 8 11 14 13 12 13 11 8 7 10 15 19 18 18 21 22 22 22 19 19 17 15 14 13 13 12 11 11 9 10 13 13 13 13 13 12 13 13 10 8 8 8 9 8 4 4 4 3 2 1 2 4 5 7 10 11 9 10 11 11 14 19 23 19 15 14 13 15 18 17 16 16 13 11 14 18
3 1 2 4 5 4 5 7 6 6 5 6 7 1 5 7 9 10 9 8 8 7 8 11 12 11 11 10 8 8 11 14 15 19 22 23 24 25 24 21 20 19 16 14 13 12 11 10 11 10 9 12 13 13 12 12 13 12 10 9 8 7 7 8 9 8 6 5 5 2 1 5 6 6 5 7 9 8 9 10 11 12 15 20 21 18 16 15 14 16 18 16 15 13 11 14 18
2 2 2 2 2 5 7 8 9 6 5 8 8 2 6 8 10 12 7 10 11 8 7 8 11 11 11 10 10 10 11 14 18 23 25 25 27 27 26 23 21 19 17 15 13 13 13 12 12 11 11 11 13 14 12 12 12 10 9 11 10 9 8 8 7 5 6 8 10 8 5 3 6 6 5 4 6 7 8 10 12 14 14 17 19 16 15 17 16 16 17 14 13 15 13 11 16
1 0 4 2 3 7 8 7 12 9 5 10 9 2 6 7 9 10 8 13 13 10 7 6 10 13 12 10 11 11 10 14 21 25 25 26 29 29 28 25 22 20 18 16 15 15 14 13 13 13 13 13 13 14 13 12 11 10 11 12 11 10 10 8 7 6 6 9 11 10 7 4 3 5 4 3 4 5 6 8 11 13 13 14 16 15 15 17 17 18 17 12 9 13 15 11 13
1 4 5 4 5 7 7 7 15 13 6 8 9 4 4 5 6 5 6 13 12 9 7 6 10 12 12 10 10 10 9 11 16 21 24 28 31 31 30 27 23 21 19 18 17 16 16 15 14 15 15 15 15 15 14 12 13 13 13 12 10 10 10 8 8 10 9 9 11 10 8 5 2 3 4 3 3 3 4 7 11 11 10 10 12 14 15 15 16 17 16 13 10 11 14 11 10
3 2 4 5 6 6 5 5 11 12 8 7 8 5 5 6 4 4 7 9 9 7 6 7 8 10 10 9 10 11 10 11 12 17 24 30 31 32 32 29 25 23 21 20 19 18 17 16 15 15 14 14 14 14 15 12 12 13 11 10 10 10 10 9 9 10 8 7 7 7 7 7 4 1 4 5 4 4 4 7 10 9 7 9 13 13 12 13 15 17 15 14 13 11 12 10 8
2 2 1 4 6 6 5 4 8 11 11 8 8 7 8 6 4 4 7 9 9 7 7 7 8 10 10 9 10 11 11 11 12 19 28 33 32 32 34 31 27 25 23 22 21 19 18 17 15 13 13 14 14 13 12 11 11 12 11 10 10 10 9 8 7 8 6 5 4 5 6 6 4 3 1 4 4 3 3 5 9 9 8 9 12 13 11 11 13 15 16 14 14 12 11 8 6
1 3 1 3 5 5 5 1 6 10 10 7 7 8 8 6 4 6 6 7 10 9 7 6 7 9 10 9 9 11 12 10 14 24 31 34 33 34 36 34 30 27 26 25 23 20 19 18 16 14 13 14 15 13 11 11 12 12 11 11 11 9 9 8 5 5 5 5 3 3 5 4 3 3 2 1 3 3 2 1 4 8 10 9 10 11 11 11 12 13 15 15 16 16 13 10 9
3 3 3 5 5 5 6 4 2 4 6 5 6 6 7 6 4 5 5 4 6 9 8 6 7 8 9 10 9 11 12 10 16 27 32 34 33 35 37 35 33 30 29 28 26 23 21 19 18 16 14 13 14 12 11 11 12 12 10 11 11 9 10 8 5 4 4 3 2 3 5 4 3 3 3 1 1 1 2 2 0 3 6 8 9 10 11 12 13 12 12 15 18 19 16 14 13
4 3 3 5 5 4 4 2 3 5 4 3 2 1 5 5 5 4 2 4 5 7 9 7 7 8 8 10 10 10 9 8 13 18 25 31 31 34 37 35 35 33 32 32 29 26 23 21 20 17 15 14 11 10 12 13 13 12 11 11 11 10 10 7 5 5 5 4 4 4 4 3 3 4 3 1 2 1 1 2 2 1 1 2 4 6 8 11 14 14 13 14 16 17 17 16 15
4 3 3 3 4 5 4 4 6 7 4 2 5 4 5 6 6 7 4 4 6 7 9 9 9 8 8 9 9 9 8 8 12 13 18 27 30 32 34 33 36 35 34 33 31 29 26 24 21 17 16 14 10 12 15 15 14 13 12 10 9 9 9 7 7 7 6 6 6 5 3 3 2 3 3 1 1 2 2 2 2 1 1 2 3 3 4 6 9 12 14 15 15 15 16 17 16
2 1 2 1 4 4 4 4 4 4 2 1 4 5 5 6 6 7 8 7 6 8 10 10 9 9 9 9 8 9 9 8 13 14 15 22 28 29 30 31 34 34 33 33 31 30 29 27 23 20 18 15 13 15 16 15 13 12 11 10 9 8 9 9 9 8 6 6 7 5 3 4 4 4 5 4 1 3 3 1 1 2 1 3 4 4 5 6 7 7 9 11 13 15 16 15 15
3 2 1 3 4 5 4 2 1 3 2 2 2 5 5 5 6 7 8 8 6 8 11 9 7 7 7 8 8 8 9 8 12 15 13 16 22 26 29 31 31 32 32 33 33 32 31 28 25 22 20 17 16 16 15 14 14 12 11 11 10 9 10 11 10 8 6 7 7 5 3 2 2 1 4 6 4 2 3 2 1 1 2 1 3 4 5 7 8 9 8 9 10 13 16 16 15
4 3 5 6 5 8 7 2 2 4 5 3 1 2 5 5 6 8 7 7 7 7 12 12 8 7 6 6 7 7 7 7 10 14 14 15 20 24 26 28 29 30 33 35 34 32 32 29 26 25 23 20 19 17 16 16 15 14 13 14 14 12 12 12 10 8 8 8 7 5 3 1 2 3 1 5 7 4 2 3 4 3 3 3 3 4 6 6 7 9 10 12 12 13 14 16 18
2 4 6 6 6 9 10 5 2 2 2 4 3 4 5 6 5 8 7 7 9 8 11 12 8 7 8 7 7 7 7 7 7 9 12 15 18 21 23 27 30 31 33 35 34 31 30 28 27 26 24 23 21 19 18 17 15 16 15 14 15 14 14 13 11 10 9 7 7 7 6 3 2 3 3 1 2 5 5 3 3 4 5 5 5 5 6 6 7 9 9 11 13 15 15 16 18
3 4 5 5 4 6 10 7 2 3 2 4 2 5 3 5 6 8 6 6 8 8 9 11 9 9 10 9 8 9 9 9 7 8 13 16 19 22 25 29 32 34 34 34 33 32 30 28 26 27 25 24 23 22 20 18 16 17 15 14 14 14 15 13 11 10 9 7 6 7 6 5 4 3 1 2 2 0 3 4 4 6 7 7 6 6 7 7 8 10 10 10 11 13 16 17 18
5 5 5 4 1 2 3 1 2 0 2 5 5 4 2 4 6 8 6 5 7 9 11 11 11 10 11 11 11 11 11 10 9 9 13 17 21 26 30 32 33 34 35 35 34 33 31 29 27 27 27 26 25 24 22 18 17 17 16 15 13 12 14 13 9 9 9 8 7 7 6 6 6 6 5 3 1 1 0 1 3 5 7 8 9 9 9 9 10 11 11 11 11 11 12 14 17
6 4 1 2 3 3 3 2 2 3 1 5 6 4 3 5 5 6 7 5 7 10 10 10 11 11 10 10 10 11 11 10 9 10 13 18 25 31 33 33 32 33 35 36 35 33 32 31 29 29 29 27 26 25 23 20 19 18 18 16 14 13 13 12 9 10 10 9 8 7 8 7 6 5 5 5 4 3 2 1 1 2 3 5 8 10 12 12 12 12 13 13 12 11 12 13 15
6 4 2 4 4 4 3 1 2 3 3 6 7 5 4 4 5 5 5 5 6 6 7 8 11 10 9 8 7 9 10 9 8 8 11 18 26 30 30 29 29 31 33 35 34 33 32 32 31 31 30 28 27 25 23 22 21 21 20 18 17 17 16 13 13 14 13 11 9 8 7 7 6 6 5 5 5 5 5 3 2 3 4 3 5 7 9 11 12 14 15 16 15 14 13 13 15
5 4 3 3 4 4 3 3 2 1 5 7 8 7 5 4 5 6 5 6 6 1 5 7 9 9 9 8 7 8 9 9 9 8 9 13 18 21 24 26 27 29 30 32 34 33 32 33 32 31 30 28 27 26 25 23 22 22 21 20 18 19 18 16 17 19 17 13 12 11 9 8 8 8 6 5 5 5 5 5 4 5 6 6 6 6 7 10 12 15 17 18 19 19 16 14 15
3 4 4 3 2 3 2 2 1 4 6 6 5 5 4 5 6 7 7 9 8 2 3 6 7 6 7 8 8 7 8 9 10 9 9 10 12 15 21 24 26 29 30 32 35 34 33 32 33 31 30 29 29 27 26 25 24 23 22 21 20 19 19 19 19 18 17 15 15 14 12 11 10 10 8 7 6 6 7 8 7 7 7 7 7 7 8 10 12 15 17 19 20 21 20 18 18
4 4 4 3 2 1 2 3 3 3 3 4 4 2 3 4 5 6 7 8 7 4 4 6 7 8 8 8 8 6 8 10 9 9 10 10 11 16 23 27 29 30 32 34 35 36 34 32 33 33 30 30 30 28 27 27 25 24 23 22 22 20 20 20 19 17 17 17 15 14 14 13 11 10 9 9 9 8 8 9 10 9 10 10 11 12 13 13 14 15 16 17 19 20 20 20 21
4 5 5 5 4 3 4 3 3 3 3 4 4 2 2 3 5 7 7 7 6 5 4 4 6 6 7 7 7 7 8 8 9 10 11 11 14 19 24 28 31 32 35 35 35 36 35 33 34 34 31 30 31 29 28 28 27 26 24 23 22 22 21 20 18 17 17 17 14 14 14 14 12 10 10 10 10 10 10 11 12 12 13 13 13 13 13 13 14 14 15 17 18 19 19 19 20
3 2 4 5 5 5 4 3 4 2 1 3 1 2 4 4 7 11 9 8 8 8 5 0 3 4 4 6 6 6 6 5 7 10 12 12 16 22 25 27 30 32 34 35 35 37 36 34 34 35 33 32 32 31 30 29 28 26 25 23 23 22 21 19 18 17 16 15 14 14 14 13 12 11 11 10 10 10 11 12 12 13 14 13 12 12 12 12 13 14 16 17 18 19 19 19 19
3 3 3 5 6 6 3 2 0 3 1 3 2 3 6 4 6 9 7 7 8 9 8 4 2 3 1 5 6 6 4 3 2 5 9 11 14 20 24 25 27 29 31 33 35 37 37 36 35 34 34 33 33 32 31 29 28 26 26 25 23 23 21 20 19 18 16 15 15 15 13 13 12 12 11 11 10 10 11 11 12 13 13 13 13 13 14 14 13 14 15 16 17 17 18 20 20
2 3 5 5 2 2 2 1 1 1 2 3 2 4 5 3 4 6 6 7 9 8 7 6 4 4 2 3 4 6 6 5 4 4 7 10 12 16 21 24 28 31 32 34 35 35 36 35 35 34 33 33 33 33 32 30 29 28 27 26 24 23 22 21 19 18 17 16 16 16 15 14 12 11 10 10 10 10 11 11 11 12 12 12 12 13 14 14 13 13 15 17 17 17 18 20 21
5 4 4 2 0 1 1 1 1 2 2 3 3 5 4 3 4 6 6 6 7 8 6 6 6 8 3 6 3 2 2 2 3 4 7 10 10 14 20 22 26 30 31 32 34 34 34 33 34 34 33 34 34 33 32 31 30 29 28 27 25 24 22 21 19 18 18 18 18 17 16 13 11 10 10 10 10 11 12 12 11 11 12 12 13 13 13 13 14 15 17 17 17 17 18 19 20
3 3 4 1 3 3 2 1 2 3 3 4 4 3 3 4 4 3 5 5 6 7 7 7 9 10 7 5 7 7 7 6 5 2 5 10 12 16 21 23 26 30 31 32 33 33 33 32 32 32 31 32 34 33 33 32 31 30 29 27 26 25 23 22 21 20 19 19 19 17 14 12 11 11 11 11 12 12 12 12 12 12 14 14 14 14 14 14 15 16 16 16 16 16 18 20 21
4 5 5 3 1 1 1 0 1 2 1 2 2 3 5 5 2 3 4 5 4 5 6 7 8 9 9 8 8 7 8 8 8 8 2 7 12 17 22 26 29 31 31 32 33 33 33 32 32 32 31 32 33 34 33 33 32 31 30 28 27 26 25 23 23 22 20 19 18 16 13 12 12 12 12 12 12 11 11 11 12 13 15 15 15 15 15 15 16 16 17 18 19 19 19 20 21
5 4 4 4 2 1 1 3 1 3 2 3 2 4 7 5 2 4 5 4 4 6 7 7 7 9 9 7 7 7 7 7 7 8 8 3 6 14 19 21 23 25 27 31 32 32 32 33 34 34 33 34 35 36 36 35 33 32 30 29 28 26 25 24 24 23 21 19 17 15 13 12 12 13 12 12 12 12 12 14 15 16 15 15 15 15 14 14 15 16 18 19 20 20 20 20 21
Wind_Direction
286 293 299 314 306 303 301 239 112 279 176 272 260 242 257 243 241 239 145 91 82 72 66 62 60 81 91 93 95 76 53 50 53 104 124 122 124 133 138 141 145 148 149 149 148 147 147 149 147 145 144 141 138 138 140 145 147 143 141 145 150 154 157 159 159 154 146 137 135 135 129 124 124 123 125 123 120 121 120 115 116 117 116 114 109 104 100 99 100 101 105 110 107 104 103 103 108
290 295 297 310 294 274 287 199 118 269 182 276 261 216 252 268 266 133 99 83 85 94 77 64 66 86 100 103 93 80 65 62 74 86 109 116 120 137 142 142 145 147 149 150 150 149 150 151 149 145 141 137 135 135 137 145 150 148 145 147 154 157 161 163 162 158 150 143 140 138 135 130 126 125 128 128 127 124 120 121 123 123 120 117 114 109 105 102 104 105 108 113 111 107 105 103 107
297 300 302 323 294 225 300 295 183 237 194 256 262 253 262 265 239 101 91 86 89 88 74 62 59 73 90 82 71 79 88 89 95 96 113 118 117 139 142 140 142 146 150 152 152 151 152 153 148 141 137 133 132 135 137 145 153 154 151 152 158 159 163 165 164 160 153 148 144 140 137 135 131 128 131 131 131 127 120 124 128 128 124 119 116 112 109 107 107 109 112 116 113 108 104 104 111
299 301 300 324 339 201 342 263 186 212 217 252 265 297 304 93 105 94 93 98 96 88 79 73 62 39 76 83 76 78 90 86 87 95 104 116 124 140 141 140 144 147 151 153 154 153 155 153 147 140 135 134 132 134 137 145 154 157 157 160 162 163 165 167 165 161 156 153 148 143 138 138 136 133 135 134 133 130 124 123 128 130 126 123 121 117 112 111 111 112 117 120 115 109 105 107 116
301 298 281 278 7 221 182 234 195 208 221 239 267 312 359 80 92 93 102 106 104 100 98 95 85 57 65 80 93 89 101 85 73 85 92 109 126 134 136 142 147 149 151 154 156 158 159 153 146 140 135 133 131 132 135 142 154 159 161 165 168 167 167 167 165 161 159 155 151 145 139 138 138 140 139 136 134 131 128 126 128 130 128 128 127 122 117 116 116 116 121 124 118 112 109 110 119
300 301 274 235 252 303 181 264 241 236 239 234 260 275 102 97 96 103 95 84 83 92 98 98 101 89 71 62 65 70 95 101 85 91 106 117 126 130 131 135 142 149 153 157 161 163 160 153 149 145 138 132 128 127 131 137 152 160 163 169 171 169 167 166 164 160 159 157 153 145 140 139 140 146 142 137 134 132 134 132 132 132 131 131 128 125 124 121 120 124 129 127 120 115 114 112 120
283 301 277 205 261 282 180 255 250 257 251 232 249 260 206 132 115 107 79 68 68 81 95 103 108 94 82 82 66 63 77 94 102 106 116 122 127 131 135 135 137 144 155 162 166 166 158 152 153 149 140 131 127 123 123 128 143 157 163 171 173 171 167 164 162 159 159 159 153 146 142 141 144 148 144 139 135 136 140 137 137 136 134 134 131 129 128 125 126 133 135 130 121 118 117 114 118
259 264 275 154 270 250 193 254 253 259 259 251 268 265 187 151 121 110 88 85 89 98 108 112 104 89 84 94 84 79 86 98 107 111 119 124 127 132 141 143 140 144 159 167 167 165 157 156 158 151 140 131 127 124 118 117 128 149 159 165 171 171 166 160 160 159 160 161 154 148 146 144 147 147 143 141 139 141 144 144 144 142 140 140 138 133 129 127 131 138 140 133 125 122 120 116 119
241 223 282 219 230 261 234 250 247 252 261 259 274 275 132 132 113 116 116 122 136 105 108 110 97 97 101 89 94 100 100 109 110 112 121 126 127 130 140 145 147 149 161 169 168 165 158 160 162 153 144 138 132 125 117 111 116 136 151 160 167 166 161 157 156 159 160 160 154 148 147 147 150 147 143 143 143 142 146 152 150 150 150 148 146 136 128 129 134 140 143 136 129 128 123 119 121
217 199 242 262 233 269 259 257 249 248 254 247 250 237 123 124 127 119 120 125 113 89 99 102 96 107 114 98 104 114 116 118 113 113 120 123 126 128 136 142 144 146 159 167 167 165 161 163 164 156 147 141 131 121 117 113 114 126 141 153 160 159 157 156 155 159 162 159 154 149 147 149 152 148 142 145 148 144 147 156 155 156 158 156 152 138 127 129 135 141 145 140 134 131 127 123 123
237 220 184 279 266 263 254 254 256 251 253 252 245 218 152 130 126 108 109 108 103 109 113 103 102 114 112 104 114 117 119 119 116 118 120 121 123 122 123 132 140 144 156 164 166 165 163 165 164 156 146 137 125 119 118 117 120 128 138 148 153 157 159 161 161 162 163 160 157 152 149 149 151 149 145 147 148 144 146 157 160 158 162 165 156 140 131 130 133 140 145 142 138 135 132 127 127
244 266 160 229 235 241 247 252 259 262 261 254 247 204 151 114 115 120 119 110 110 126 121 111 118 117 108 112 129 115 112 116 122 123 121 121 118 115 114 121 137 147 154 161 166 166 165 166 164 157 146 137 126 123 123 122 123 125 136 147 151 158 162 165 167 166 165 162 161 157 152 151 152 150 148 148 149 147 148 158 166 162 166 171 164 151 144 142 139 144 151 148 142 139 137 131 132
214 252 190 235 229 235 252 264 263 274 277 244 211 183 146 112 128 136 126 121 112 100 109 121 128 115 114 124 120 111 106 117 126 124 121 121 121 118 112 111 119 134 150 161 165 165 166 168 165 157 144 138 132 129 130 128 124 124 134 144 153 160 162 167 169 167 166 165 165 162 156 154 154 153 153 152 152 152 151 159 172 170 172 174 171 167 159 153 147 152 160 157 148 143 141 135 138
206 232 202 250 260 255 257 268 270 284 282 236 184 151 135 117 120 98 107 107 85 77 108 123 124 111 122 129 116 122 117 121 126 128 125 122 123 119 111 108 108 113 128 156 165 165 166 167 167 157 146 142 140 137 137 136 129 130 136 142 155 162 163 168 170 168 168 167 167 165 161 159 157 157 158 158 157 157 155 165 179 179 178 177 175 168 160 153 148 157 159 159 152 145 145 139 141
205 249 225 262 277 277 265 262 271 278 268 256 193 122 115 107 91 70 84 93 84 94 106 119 125 119 142 146 133 138 130 124 124 129 129 125 124 120 116 113 107 105 108 124 145 162 172 174 169 155 152 149 148 151 147 147 142 138 138 143 154 161 169 170 168 168 167 166 168 166 165 164 160 161 163 162 162 163 159 174 190 185 179 179 177 161 152 150 148 157 157 157 152 147 148 142 141
204 227 251 280 275 283 273 267 286 282 265 315 41 103 93 62 74 77 95 101 95 78 78 106 137 138 147 141 128 129 128 126 125 126 128 126 125 124 123 121 118 114 109 107 109 133 162 173 167 151 154 154 153 161 159 157 154 149 141 144 153 159 171 169 163 164 165 166 167 168 169 167 162 161 168 168 170 171 168 188 198 190 184 182 179 165 152 153 152 157 157 155 152 149 149 145 144
229 206 244 278 268 272 260 262 308 300 289 86 83 81 86 80 79 95 111 100 95 76 66 61 72 114 123 119 123 127 128 129 132 130 128 125 123 119 118 123 125 121 120 120 110 113 131 152 157 147 142 147 161 171 171 168 162 158 150 147 152 152 161 161 157 157 163 167 167 171 171 169 168 167 174 179 181 179 174 196 204 196 191 186 185 178 162 158 155 156 159 157 154 152 152 152 154
241 189 214 249 255 257 254 272 293 14 316 128 138 113 98 118 103 63 84 89 95 91 82 73 70 88 104 115 123 127 131 134 139 138 135 130 125 120 119 120 117 113 117 121 118 118 125 134 139 136 128 127 160 176 176 179 174 165 156 150 150 147 148 147 151 158 166 171 172 176 175 175 176 174 181 186 188 190 187 198 207 202 193 190 189 185 168 159 157 158 162 160 160 159 160 160 161
226 194 197 226 242 252 263 287 291 60 345 278 152 116 84 124 118 29 86 101 102 99 97 93 90 93 102 115 123 128 136 141 146 144 141 137 134 134 134 125 113 109 108 106 103 106 119 127 125 124 127 127 149 167 164 175 176 168 155 147 146 142 145 142 141 157 171 176 179 179 178 181 182 180 184 188 191 194 194 200 207 200 193 193 189 184 170 161 159 160 167 165 165 170 170 169 164
223 210 217 237 240 256 277 285 278 75 49 329 41 82 86 120 114 50 110 123 128 122 124 118 117 123 120 123 127 134 142 151 153 145 139 141 141 140 139 132 121 117 111 107 101 98 105 119 123 111 118 129 139 154 150 161 168 165 155 148 147 142 142 137 133 150 167 179 182 181 180 181 184 190 192 192 195 192 189 196 203 197 190 194 190 181 168 166 166 164 174 174 173 182 183 183 180
208 192 227 250 256 268 291 321 323 32 50 26 30 36 90 132 120 117 121 121 158 153 146 142 143 142 135 134 135 141 150 155 146 130 127 129 132 133 134 132 125 126 125 117 109 104 101 107 115 102 109 126 132 151 152 159 168 169 160 152 151 148 150 145 147 168 177 184 182 182 189 193 195 201 205 201 198 194 189 189 193 196 190 193 194 182 169 171 176 172 178 184 184 191 194 197 200
215 209 225 248 267 274 298 12 5 4 19 45 43 17 91 149 103 118 126 128 219 210 160 148 144 140 134 138 140 145 151 143 124 121 119 116 118 119 124 127 124 126 127 120 107 105 117 111 107 104 109 111 121 152 157 159 167 172 166 162 157 150 158 160 167 183 182 181 177 185 198 205 207 211 216 210 203 200 194 185 185 196 196 195 199 189 173 172 179 179 181 185 189 193 198 203 211
214 230 225 235 242 248 276 39 13 2 359 12 9 320 90 114 65 67 94 113 72 62 127 130 123 125 129 135 137 145 147 132 121 121 119 117 118 115 119 124 123 124 124 126 114 103 125 126 121 116 100 95 130 151 156 160 164 172 171 172 168 157 163 165 177 192 191 182 172 186 200 210 217 222 225 219 212 208 202 189 184 192 199 201 203 197 180 176 183 184 186 188 192 197 202 205 218
199 239 231 234 242 233 125 80 43 13 339 345 360 345 4 134 138 79 85 101 87 81 98 110 114 123 127 132 137 147 145 133 128 124 123 124 125 123 122 123 123 126 127 129 118 106 110 109 122 124 93 93 132 135 121 133 143 156 172 177 174 170 171 168 182 196 203 194 177 190 202 216 228 236 237 226 218 216 211 199 186 187 202 210 210 207 192 186 190 192 198 198 201 209 210 219 229
207 239 238 244 259 200 103 85 60 20 310 355 28 2 328 228 139 143 123 110 103 104 108 113 121 126 128 137 142 147 142 135 130 123 122 123 125 123 121 123 125 127 128 128 119 108 105 103 118 127 107 103 125 122 102 103 104 104 132 169 177 179 175 164 182 200 205 193 186 205 214 220 237 248 245 229 222 224 218 206 192 187 200 211 214 210 203 202 205 207 213 214 221 224 227 234 219
217 228 243 259 266 145 114 115 119 94 310 25 44 334 312 326 22 61 120 115 115 119 123 128 133 136 139 144 150 152 145 140 132 124 122 121 122 121 120 125 126 126 128 128 120 111 112 119 125 131 124 113 119 118 105 101 95 87 95 119 143 166 174 169 179 196 193 165 154 159 187 205 229 241 236 224 220 222 217 209 200 194 199 211 215 210 210 221 224 225 228 235 241 237 250 230 196
216 219 247 266 191 135 127 119 125 128 228 274 133 241 282 307 339 319 147 127 131 127 129 138 138 141 147 146 154 152 141 143 136 128 124 122 124 124 125 128 128 130 132 128 125 123 127 132 137 133 114 115 121 114 105 102 94 89 95 94 94 100 118 164 187 199 185 147 140 137 135 169 204 220 218 219 217 215 218 218 206 200 203 211 217 212 214 227 232 233 234 244 247 244 252 215 187
206 242 270 278 133 178 118 100 125 150 210 238 174 226 282 302 264 226 227 159 148 142 132 138 141 142 147 147 150 142 133 140 137 132 130 130 133 134 135 137 136 138 137 132 129 133 133 131 139 135 106 110 121 114 105 101 99 102 100 86 82 85 76 90 144 199 199 170 145 152 135 148 180 202 211 215 212 214 217 222 218 209 209 216 222 214 211 220 226 230 234 243 243 245 252 207 187
111 23 310 306 322 237 156 133 200 182 197 200 141 307 291 281 258 220 206 178 152 151 137 140 145 143 144 146 144 134 137 141 137 137 141 141 144 144 142 144 145 143 141 139 136 132 128 129 138 137 113 107 110 114 107 98 107 111 100 90 85 90 86 80 80 101 185 189 169 194 222 205 203 196 208 210 205 212 211 209 217 217 217 224 230 221 210 208 215 225 232 241 241 250 260 208 193
86 349 280 301 325 284 198 169 183 183 190 167 129 189 265 260 255 242 211 172 145 147 151 146 143 145 148 147 144 140 143 144 143 146 149 148 148 147 145 149 153 148 147 149 145 133 122 125 131 131 127 113 107 116 112 97 106 106 97 107 104 104 112 91 74 78 103 124 117 108 211 225 223 211 214 210 202 207 205 200 205 216 222 224 229 227 218 210 212 222 227 239 246 253 260 212 197
85 321 296 238 274 273 232 187 175 193 191 141 120 167 249 258 253 256 224 153 142 154 171 155 143 150 153 149 150 148 150 152 153 155 156 153 149 148 149 152 157 155 155 156 151 140 128 126 126 126 131 124 119 123 114 100 103 101 103 119 111 106 118 101 81 81 98 105 101 99 111 182 222 221 214 219 215 201 195 205 206 212 222 222 225 227 219 216 219 217 219 238 248 241 246 212 197
131 200 294 252 202 253 252 196 175 192 186 135 125 185 250 261 269 267 210 153 143 157 183 172 145 151 157 156 155 151 156 157 156 161 161 156 152 153 153 156 161 160 160 157 152 146 136 135 131 126 128 127 130 129 114 100 96 99 110 117 109 106 113 104 93 97 112 120 114 109 103 113 217 238 227 224 227 194 186 210 211 212 220 222 225 226 220 222 225 220 218 233 237 230 235 216 198
242 168 239 247 202 242 261 204 182 180 165 141 143 180 239 250 294 324 155 149 140 150 186 181 147 154 160 156 156 155 158 157 159 166 163 155 155 157 156 160 165 163 162 159 154 152 146 144 136 126 124 120 122 125 118 106 94 95 105 111 106 108 112 101 100 107 110 118 118 114 106 109 159 247 254 233 197 184 189 208 209 210 216 217 220 223 226 228 227 224 221 223 222 230 234 227 225
291 202 230 252 226 240 266 206 183 159 147 174 175 190 235 244 283 23 95 125 130 151 190 185 152 156 165 157 157 161 161 161 167 169 161 157 158 159 158 163 168 164 163 161 156 157 153 148 141 132 128 124 122 123 124 125 112 100 103 119 108 95 104 99 101 113 111 115 111 101 101 113 132 139 270 258 232 218 222 225 219 212 210 210 211 212 223 228 222 222 224 221 219 235 242 239 244
296 319 242 274 261 251 256 202 178 157 158 183 180 202 244 251 233 175 147 136 146 181 195 184 163 155 165 162 156 162 167 168 173 169 161 159 160 158 159 164 167 165 162 161 159 161 158 152 152 146 140 137 139 138 136 141 135 112 104 125 119 93 103 104 103 116 118 129 116 82 94 118 141 134 223 281 292 262 227 229 229 224 214 206 207 207 216 227 224 223 228 226 220 231 248 251 234
54 342 28 294 297 292 294 197 172 168 166 182 168 188 239 254 220 200 199 165 161 187 194 178 169 158 162 165 159 164 172 176 174 168 162 162 161 159 161 164 166 166 162 161 162 165 163 161 164 161 150 145 149 152 153 147 135 123 112 118 119 106 117 120 115 124 125 146 152 96 96 109 127 126 146 230 318 332 3 35 215 225 225 213 204 200 206 222 227 226 229 227 225 226 232 244 244
66 22 7 329 331 329 336 31 97 128 140 198 185 181 233 254 243 229 240 223 172 178 193 192 173 165 165 167 166 166 176 185 173 166 164 164 161 159 161 163 164 165 164 163 165 170 172 171 173 172 161 155 158 159 166 158 135 129 128 120 118 117 129 132 123 136 135 144 183 144 117 106 93 91 102 132 305 331 352 7 89 222 232 230 221 209 208 221 226 224 223 223 227 230 230 238 247
31 55 26 342 328 306 316 31 26 41 95 211 218 180 251 269 283 283 238 205 209 191 192 204 187 177 173 170 171 171 176 176 165 163 164 163 159 158 162 163 164 166 166 167 168 172 176 179 180 179 168 164 171 169 167 163 146 142 139 128 127 121 128 134 118 136 132 92 104 137 143 145 140 129 117 30 336 330 297 268 272 298 283 264 256 237 227 231 234 233 231 226 225 232 237 239 242
7 39 53 342 302 305 329 10 21 31 50 317 356 2 291 289 295 298 290 208 222 217 199 202 197 183 177 176 177 179 179 161 159 162 162 164 162 159 162 164 167 169 169 170 172 173 178 184 186 184 177 173 180 178 168 158 150 153 146 136 140 130 130 135 120 130 130 103 117 138 167 204 228 202 180 171 3 351 319 260 249 274 354 357 346 312 278 261 251 243 243 240 235 238 243 243 244
348 20 71 286 289 309 326 345 21 64 95 278 343 347 297 296 304 291 276 243 225 223 213 211 201 185 180 179 173 178 184 164 160 167 164 165 166 163 164 167 168 169 170 172 175 176 180 184 187 188 185 181 183 183 178 168 160 161 153 144 144 132 131 137 128 128 126 129 155 179 220 244 268 251 220 205 171 13 352 323 121 131 96 353 343 328 316 308 298 275 258 252 247 245 246 248 248
317 305 234 236 271 289 282 281 3 50 23 268 319 348 313 281 278 272 267 254 239 219 212 217 213 195 180 169 163 170 179 166 160 170 170 164 169 170 168 168 167 167 171 175 178 179 181 184 187 188 188 185 183 184 186 181 170 165 158 151 149 142 145 152 143 136 135 148 169 190 233 270 329 289 217 207 217 338 360 329 344 150 180 297 323 319 315 316 314 304 292 282 269 257 252 250 249
312 288 245 233 249 278 277 265 38 27 347 286 178 351 299 274 255 257 264 257 248 213 198 208 214 204 187 176 177 172 175 180 169 173 176 167 168 171 169 168 167 168 173 178 180 181 181 183 187 187 188 188 184 185 189 185 174 167 161 156 160 161 160 164 161 152 156 166 171 174 193 209 62 47 69 197 218 244 272 293 309 297 265 262 290 311 309 309 314 312 302 289 282 276 266 255 249
291 258 240 236 240 263 267 263 67 88 267 267 172 171 269 297 279 260 254 246 241 211 188 196 203 204 200 198 198 189 185 190 169 157 165 167 164 165 169 171 171 173 177 181 181 182 180 182 187 188 189 190 188 187 188 186 178 171 168 166 170 172 166 165 168 166 164 164 158 159 168 174 124 60 35 60 218 236 240 253 280 282 276 270 277 299 305 302 309 316 311 296 285 278 268 258 255
248 254 249 251 240 251 257 245 162 172 249 304 224 175 231 287 278 268 253 238 244 227 201 194 193 200 203 204 202 201 199 189 170 147 154 165 166 167 172 175 176 178 180 181 182 183 183 184 189 191 190 190 190 190 191 189 183 175 177 181 181 182 178 171 167 165 167 166 156 151 153 158 161 178 245 357 29 244 227 234 248 259 263 267 271 283 292 292 297 304 312 315 304 284 268 260 261
225 231 242 262 299 335 297 245 130 197 313 312 274 204 223 272 272 285 279 250 243 231 218 205 197 197 197 202 206 206 202 190 180 159 153 164 170 172 175 177 179 180 180 182 183 184 185 187 191 192 191 192 192 195 196 192 186 182 185 188 184 183 181 177 172 168 173 180 173 160 162 172 171 178 199 212 244 10 44 237 256 263 264 265 266 272 277 277 286 299 308 316 317 306 289 276 269
212 199 237 360 9 343 359 48 35 17 339 268 261 212 219 275 274 283 286 270 249 230 215 203 202 203 192 193 201 201 199 195 186 165 154 164 172 175 177 178 178 178 180 183 183 183 184 187 192 191 191 194 194 197 199 193 190 191 191 190 187 184 180 179 183 183 185 188 184 177 175 177 179 183 189 194 209 227 236 266 326 322 288 272 270 276 278 275 278 290 298 301 305 307 304 300 289
175 136 57 28 351 318 330 17 53 19 302 258 251 228 218 267 277 255 248 261 262 226 192 191 197 198 191 190 193 187 188 192 184 165 155 163 172 176 176 176 176 175 177 181 181 182 183 187 192 191 192 196 196 198 198 193 194 198 196 193 192 190 186 187 189 189 193 193 193 195 182 173 187 199 198 200 206 217 231 249 295 320 321 312 294 288 285 283 281 283 286 287 289 293 296 303 304
127 102 73 42 344 331 337 344 74 183 263 253 247 251 237 247 267 258 254 278 293 226 162 188 191 188 191 192 192 181 173 175 173 165 157 157 163 172 173 172 174 174 174 177 180 181 182 186 191 190 192 196 198 199 197 194 196 200 199 196 197 196 193 194 192 190 194 195 195 201 193 186 195 198 205 226 231 226 225 229 257 289 302 310 310 302 294 290 287 284 284 284 284 286 287 293 302
104 89 76 68 324 332 324 278 199 208 248 255 251 259 252 247 249 257 271 277 285 305 148 158 162 185 204 201 196 183 166 164 169 166 161 156 153 162 170 171 174 176 175 176 179 181 181 186 190 189 191 197 199 199 196 194 197 201 200 197 199 199 195 195 195 194 196 196 195 198 197 196 197 201 210 219 216 212 215 227 251 267 269 275 278 277 279 281 283 285 287 288 288 288 287 286 289
159 139 122 144 182 275 267 246 232 229 256 285 307 315 281 275 261 263 275 267 261 265 216 175 170 184 195 204 196 173 163 162 165 169 163 160 160 164 169 172 175 178 178 177 177 179 181 184 188 189 192 196 198 198 196 195 198 201 201 201 201 201 199 198 199 199 197 197 200 201 200 199 197 200 204 203 206 217 232 248 261 259 255 261 266 269 274 278 282 285 287 288 290 292 292 289 286
197 176 158 160 165 192 225 220 220 243 271 294 326 345 242 240 269 287 300 294 292 292 256 209 213 201 168 181 181 161 169 165 157 168 169 167 170 171 172 174 177 179 178 176 176 178 180 182 187 189 191 195 197 197 198 199 201 202 204 206 207 206 207 205 202 200 199 200 204 203 202 203 202 202 205 211 222 234 245 255 260 263 268 276 279 280 282 284 287 289 288 286 285 289 292 293 291
260 212 165 178 188 193 211 205 188 175 335 301 283 258 239 227 277 294 305 307 311 313 313 138 227 244 129 140 158 156 173 171 157 167 175 177 174 174 175 176 177 177 176 176 176 178 180 181 186 189 190 195 197 197 199 201 202 203 205 208 209 209 210 208 202 201 205 205 202 202 205 208 209 210 213 218 227 236 245 253 260 268 277 282 283 282 282 283 284 287 289 291 290 289 290 292 295
274 277 224 217 198 172 193 266 226 93 338 280 199 254 293 316 296 293 299 297 291 292 306 334 314 283 178 143 138 137 141 143 154 158 168 178 177 176 177 175 175 175 175 177 178 180 182 182 184 187 189 193 198 198 198 201 201 202 205 207 209 210 211 211 206 202 205 207 205 207 210 210 214 219 223 229 238 245 250 256 263 271 278 283 284 284 284 283 282 282 284 290 293 293 291 288 291
208 249 245 257 260 118 123 217 357 60 249 262 180 219 278 315 292 298 315 305 292 290 306 329 358 15 305 242 156 145 144 146 153 129 148 173 179 177 176 174 176 177 177 179 179 182 184 184 185 187 188 191 196 198 198 199 201 202 205 207 209 211 212 213 211 207 206 208 210 213 215 217 221 227 234 242 249 251 257 263 268 273 277 282 287 290 292 290 286 283 282 284 287 291 293 289 288
218 241 258 263 35 16 34 162 172 160 217 278 256 227 241 222 241 291 312 316 323 335 349 348 9 43 18 296 315 69 69 135 161 125 136 163 175 176 176 176 177 177 178 178 179 182 183 184 187 189 190 192 196 198 198 199 202 204 206 207 208 209 210 210 209 208 209 211 214 217 221 224 226 230 237 242 250 258 267 271 269 270 272 278 284 287 291 293 290 290 289 286 285 288 292 291 289
273 301 316 307 154 167 162 172 192 176 210 268 284 267 252 227 222 278 311 331 354 4 18 15 15 37 43 1 0 14 18 11 342 334 146 159 171 177 176 176 177 177 178 177 178 182 183 184 187 189 190 192 194 197 197 198 202 205 206 206 207 207 207 208 207 206 210 213 216 220 224 224 225 232 239 248 261 271 272 269 266 270 276 282 284 282 284 289 291 294 294 292 292 294 293 292 292
342 340 327 313 292 126 84 314 181 120 165 240 295 288 264 248 263 357 347 341 6 31 38 35 33 38 44 40 25 19 27 24 356 335 341 152 168 180 180 178 180 179 178 178 180 183 184 185 188 190 189 190 193 196 197 199 201 203 204 205 207 208 207 207 207 208 211 214 217 220 222 223 229 238 249 261 273 276 270 266 270 278 285 287 286 284 283 283 284 287 291 293 295 298 295 291 291
326 310 292 280 261 181 352 292 265 102 139 187 183 267 266 248 264 331 337 343 22 38 37 39 44 38 37 42 37 32 33 29 8 347 345 23 158 184 186 182 180 179 178 180 184 185 184 186 189 190 190 191 193 196 198 198 199 201 204 206 206 207 207 208 208 211 214 215 217 218 219 226 236 246 257 267 272 272 269 270 274 281 287 289 290 291 288 284 283 286 289 292 295 297 296 293 292
Height
776 778 777 778 777 778 779 779 793 791 791 802 792 787 772 751 751 748 746 743 746 746 738 742 743 744 755 768 774 776 777 780 783 789 804 796 787 791 788 790 792 792 794 795 796 797 798 799 800 800 800 800 801 801 801 802 803 803 804 805 806 808 808 809 810 811 812 813 814 815 817 818 819 820 821 821 822 822 823 824 825 826 827 827 827 828 829 830 830 830 831 831 832 832 833 834 834
776 777 776 778 776 780 781 777 797 797 797 806 788 779 765 747 752 752 749 746 748 743 737 742 745 750 756 762 765 771 780 778 775 780 787 787 789 791 789 791 791 792 793 794 796 797 798 798 799 800 800 800 801 801 801 802 802 803 804 805 806 807 808 809 810 811 812 813 814 816 818 818 819 820 821 822 823 823 824 825 826 827 828 828 829 829 830 831 831 832 832 832 833 834 835 835 835
776 777 776 778 776 779 780 781 798 801 802 806 786 769 756 753 757 751 746 743 741 737 739 743 748 757 758 766 768 775 786 779 776 780 784 787 788 790 791 790 790 792 793 794 796 796 798 798 799 800 800 801 801 801 802 802 802 803 804 804 806 807 808 809 810 811 812 814 815 816 818 819 820 821 822 823 824 824 825 826 827 828 828 829 830 830 831 832 832 833 833 833 834 835 836 837 836
776 777 777 778 780 781 784 788 794 798 804 800 785 766 755 756 754 748 742 738 736 736 744 748 757 760 759 773 774 776 785 780 778 780 785 787 786 789 789 789 790 792 793 795 796 797 798 798 799 800 801 801 801 802 802 803 803 803 804 805 806 807 808 809 810 812 813 814 815 817 818 820 821 822 823 823 825 825 826 826 827 828 829 830 831 831 831 832 833 834 834 835 835 836 837 838 838
776 776 777 779 784 784 785 789 787 793 797 790 782 767 757 753 749 748 741 737 736 739 747 752 764 763 760 771 772 779 784 781 781 780 786 787 786 789 789 790 790 792 794 794 796 797 797 798 800 800 801 801 802 803 803 803 803 804 804 805 806 807 808 809 811 812 813 814 815 817 818 819 821 823 823 824 825 826 827 827 828 829 830 831 831 832 832 833 834 835 835 835 836 837 838 839 839
776 776 776 778 781 778 786 794 790 790 782 774 775 764 756 750 746 747 742 740 737 741 747 753 764 765 769 771 769 776 777 779 784 783 785 788 788 789 789 790 791 792 794 794 796 796 798 799 800 800 801 802 803 803 804 804 804 805 805 806 807 808 809 810 811 812 813 815 816 817 819 820 821 823 824 825 825 827 828 828 829 830 831 831 832 833 833 834 835 836 836 836 838 838 839 839 840
776 778 777 780 781 778 792 798 792 789 772 763 765 758 754 747 742 744 745 746 744 746 749 755 758 765 778 775 774 777 773 777 782 784 786 787 789 789 790 791 792 793 794 795 796 797 799 800 800 801 801 802 803 804 804 805 805 806 806 807 808 809 810 811 812 813 814 816 817 818 819 820 822 824 825 825 826 827 829 830 830 831 832 832 833 834 834 835 836 837 837 837 839 839 840 840 840
777 781 777 783 788 784 792 794 789 784 768 758 755 750 748 742 739 743 747 749 751 751 755 758 754 769 784 775 782 783 776 780 781 785 787 787 790 790 791 791 792 793 794 795 796 798 799 801 801 801 801 802 803 804 805 805 806 806 807 808 809 810 811 812 813 814 816 817 818 819 820 821 823 824 825 826 827 828 829 831 831 832 832 833 834 834 835 836 837 837 838 838 840 840 841 841 841
777 781 779 785 791 789 791 790 785 776 764 758 753 746 741 738 737 741 746 749 750 751 757 759 754 773 787 779 786 785 780 784 783 786 787 789 790 790 791 790 792 792 794 795 797 799 799 801 801 802 802 802 804 805 805 806 806 807 808 809 810 811 812 813 815 816 817 818 819 820 820 821 823 824 825 827 828 828 830 831 832 833 833 834 835 835 836 837 837 838 839 839 840 841 842 842 841
778 779 780 785 790 795 795 789 781 771 760 753 750 744 738 735 736 739 744 749 748 753 759 756 758 773 784 784 788 783 783 785 783 788 788 790 790 791 791 791 792 792 794 795 797 799 800 801 801 803 802 803 804 805 806 806 807 807 808 809 810 812 813 814 816 817 818 819 820 821 821 822 824 824 826 827 829 829 830 832 832 833 834 835 835 836 837 837 838 839 839 840 841 842 842 842 842
781 777 778 788 795 799 796 788 778 767 756 748 745 740 735 732 735 739 743 748 748 756 760 757 767 774 779 786 787 783 782 784 785 788 789 790 791 791 792 792 793 793 794 795 797 799 800 801 802 803 803 804 805 806 807 806 807 808 809 810 811 812 813 815 816 817 819 820 821 822 822 823 824 825 826 828 829 830 831 832 833 833 834 836 836 837 837 838 839 839 840 841 842 843 843 843 843
784 780 780 793 796 794 789 783 775 764 756 750 746 737 730 730 736 741 743 750 749 753 755 757 768 770 781 790 786 782 782 785 786 788 790 791 792 792 793 793 794 794 795 796 798 799 801 802 803 804 804 805 806 807 807 807 808 808 810 811 812 813 813 815 816 817 819 821 822 822 823 824 825 825 827 828 830 830 831 833 834 834 835 836 837 838 838 839 839 840 841 841 843 844 844 844 844
782 781 784 792 787 785 782 779 771 764 760 750 744 733 727 731 737 739 741 748 749 753 754 754 761 765 782 789 784 783 783 786 787 788 790 791 793 793 794 794 794 795 796 797 798 800 801 802 803 804 805 805 806 807 808 808 809 809 810 811 812 813 814 815 816 818 819 821 822 823 824 824 825 826 827 829 830 831 832 833 834 835 835 837 838 838 839 839 840 841 841 842 843 844 844 845 844
776 776 782 789 781 779 778 776 770 767 764 746 737 731 728 733 735 735 739 749 752 753 753 750 756 767 781 786 788 787 785 787 787 789 790 791 793 793 794 795 795 796 797 798 799 801 801 802 803 804 805 806 807 807 808 809 809 810 811 811 813 813 814 816 817 819 820 821 823 824 824 825 826 827 828 829 830 831 832 833 834 835 836 837 838 839 839 840 840 841 842 843 844 845 845 845 845
771 772 777 785 783 780 776 773 768 767 762 744 736 732 732 733 732 737 741 750 755 748 749 751 754 768 779 782 788 786 783 786 787 789 790 792 794 794 796 796 797 797 798 799 800 801 801 802 803 804 805 806 807 808 809 809 810 811 811 812 813 814 815 816 818 819 821 822 823 824 825 825 826 827 828 829 830 831 832 834 835 835 836 837 839 839 839 840 841 842 842 843 844 845 846 846 846
766 770 778 786 786 784 776 768 766 766 758 744 737 732 738 738 732 742 740 741 751 747 750 757 754 762 773 775 780 780 782 785 786 789 790 792 794 795 796 797 798 798 799 800 800 801 801 803 803 805 806 806 807 808 809 810 811 811 812 813 814 815 816 817 819 820 821 823 824 825 825 826 827 827 829 830 831 832 832 834 835 836 836 837 839 839 840 840 841 842 843 844 845 845 846 846 846
763 771 783 788 787 784 774 766 765 765 755 743 738 734 744 746 738 741 736 735 749 754 755 758 754 757 767 772 774 777 781 784 786 789 790 792 793 795 797 798 799 799 801 801 801 801 801 803 803 805 805 806 807 808 809 810 811 812 813 814 815 816 817 818 819 820 822 823 824 825 826 826 827 828 829 830 831 832 832 834 835 836 837 837 838 839 839 840 841 842 843 844 845 846 847 847 847
768 775 785 789 786 778 767 763 758 755 753 746 740 738 744 749 745 741 741 745 752 759 761 760 761 764 768 772 775 778 781 784 786 788 790 792 793 795 796 798 799 800 801 802 802 803 802 803 803 805 805 806 807 808 809 810 811 812 813 814 815 817 818 819 820 821 822 823 824 824 825 826 826 827 828 830 831 831 833 834 836 837 837 838 838 839 839 840 841 842 843 844 845 846 846 847 847
770 775 782 784 777 766 758 758 752 749 753 748 741 739 742 746 745 743 749 756 756 764 769 767 771 774 774 775 777 780 782 784 786 788 790 792 793 794 796 798 799 800 801 802 803 803 804 804 804 805 805 806 807 808 809 810 811 812 814 815 816 818 819 820 820 821 822 823 823 824 825 825 826 827 828 829 831 832 833 835 836 837 838 838 839 839 839 840 840 842 843 844 845 846 846 847 847
768 772 781 777 765 759 755 754 749 745 747 748 745 741 742 745 744 745 753 758 758 767 772 771 776 778 778 778 778 781 783 785 787 788 791 792 794 795 796 797 798 799 801 801 802 803 804 804 804 805 805 806 807 807 809 810 811 812 814 815 816 817 818 820 820 821 821 822 822 823 824 824 825 826 827 829 830 832 833 835 836 837 838 839 839 839 840 840 840 841 842 843 844 845 846 847 847
766 770 777 768 760 761 756 752 748 743 742 745 747 745 747 746 744 747 752 761 764 764 763 764 770 773 775 778 779 781 783 785 787 789 790 792 794 795 796 797 798 800 801 801 802 803 804 805 805 805 806 806 807 807 808 809 810 812 814 815 816 817 818 819 819 819 820 821 822 823 823 824 825 826 827 828 830 832 833 834 836 837 838 839 840 840 840 840 840 841 842 843 844 845 846 847 847
765 766 765 760 760 763 756 749 748 745 743 745 748 749 750 745 746 749 751 763 766 758 755 756 761 766 771 775 779 782 783 786 788 789 790 791 793 794 796 797 799 800 801 802 803 804 804 805 805 805 806 806 807 808 808 809 810 811 813 814 815 816 817 818 818 818 819 820 821 822 823 823 825 826 827 828 830 831 832 834 835 838 838 839 840 840 840 840 840 841 841 842 843 844 846 847 847
766 765 759 757 756 758 754 747 747 747 747 751 751 749 747 749 752 750 752 762 759 750 750 755 761 766 770 774 778 781 783 786 788 789 789 791 792 793 796 797 799 800 801 803 803 804 804 804 805 806 806 806 807 808 808 809 810 811 812 814 815 816 817 817 818 818 819 820 821 822 823 823 824 825 827 828 830 831 832 833 835 837 838 839 839 840 840 840 840 840 841 841 842 844 845 846 847
763 764 757 754 752 753 751 747 747 748 750 752 750 748 749 754 756 751 755 759 755 751 753 759 765 768 772 775 778 781 783 786 787 789 789 790 792 793 795 797 799 800 802 803 804 804 804 804 805 805 806 807 807 808 809 809 810 811 812 813 814 815 816 817 817 818 819 820 821 822 822 823 824 825 826 827 829 830 831 833 834 836 837 838 839 839 839 839 840 840 840 840 841 842 844 845 846
759 760 755 751 750 750 748 747 748 749 750 750 751 754 754 753 753 753 757 757 754 755 758 763 768 770 774 777 779 781 783 785 787 788 790 791 792 794 796 798 799 801 802 803 803 804 804 805 805 806 807 807 808 808 809 810 810 811 812 813 814 815 816 817 817 818 818 819 821 821 822 823 823 824 825 826 827 828 830 832 833 835 836 837 838 839 839 839 839 839 839 840 841 842 842 844 845
754 752 751 749 750 748 748 749 750 751 750 751 755 759 756 751 753 757 757 756 755 755 759 764 768 772 775 777 779 780 783 785 786 788 790 792 793 794 796 798 799 801 802 803 804 804 804 805 805 806 807 807 808 808 809 810 810 811 812 813 814 815 816 816 817 818 818 819 820 821 821 822 823 823 824 825 826 826 828 831 832 833 835 836 837 839 839 839 839 839 839 839 840 841 842 843 844
747 748 749 749 750 747 748 750 750 752 752 753 759 762 758 751 757 763 757 754 756 757 761 763 766 771 773 776 778 779 782 784 785 787 790 792 793 795 797 798 800 801 803 803 804 804 804 805 805 806 807 807 808 808 809 810 810 811 812 813 814 814 815 816 816 818 818 819 820 821 821 822 823 823 823 824 824 825 828 829 830 831 833 835 837 838 839 839 838 838 838 839 839 840 841 842 843
744 747 750 750 750 748 749 751 752 754 756 754 757 761 759 756 761 764 755 752 755 757 762 764 766 770 772 775 777 779 782 784 785 786 789 792 793 795 797 798 800 802 803 803 804 804 804 805 806 807 807 807 807 808 809 810 810 811 812 813 813 814 815 815 816 817 818 819 820 821 821 822 822 822 822 823 824 825 827 829 830 831 832 834 836 837 838 838 838 838 838 838 838 839 841 842 842
744 748 756 756 752 753 751 752 753 755 758 752 755 767 768 764 763 759 751 751 755 757 761 765 767 769 771 774 777 779 781 783 785 786 788 791 793 795 797 799 800 802 803 803 804 804 804 805 806 806 807 807 807 808 809 810 810 811 812 813 814 814 815 815 816 817 818 819 819 821 821 821 821 821 821 822 823 825 827 829 830 831 832 833 835 836 837 837 837 837 837 837 838 838 840 841 841
748 750 758 761 762 762 752 750 753 755 756 750 758 780 779 767 760 754 750 751 756 759 760 763 767 769 771 773 776 779 781 783 784 786 788 790 793 795 797 799 800 801 803 803 804 804 805 805 806 806 807 807 807 808 809 810 810 811 812 813 814 814 815 816 816 817 818 818 819 820 821 820 820 821 821 821 822 823 826 828 829 829 830 831 833 835 836 836 836 837 836 837 837 837 839 840 840
752 757 760 764 773 770 752 749 754 756 756 748 759 783 779 765 759 753 750 751 755 760 760 761 767 769 770 772 774 778 779 781 783 784 787 789 792 795 797 799 800 801 802 803 804 805 805 806 807 807 807 808 808 809 810 810 811 811 812 813 814 815 815 816 817 817 818 819 820 820 820 819 819 820 821 821 821 823 825 826 827 827 828 829 831 832 834 835 835 835 836 836 836 837 838 839 839
756 767 773 769 773 769 753 748 751 756 755 748 761 781 776 765 760 751 748 749 752 758 760 760 766 768 769 771 772 776 778 779 781 783 786 789 791 793 796 798 799 801 802 803 804 805 806 807 807 807 808 808 809 810 810 811 812 812 813 813 814 815 815 816 817 818 818 819 820 821 821 819 818 818 819 820 821 823 825 826 826 826 827 829 830 831 832 834 834 834 834 835 835 836 837 838 838
761 769 778 773 772 770 759 750 744 749 755 753 760 774 773 765 757 748 745 748 751 757 759 760 765 768 768 770 771 774 777 779 781 782 785 787 790 792 794 796 798 800 801 803 804 805 806 807 808 808 808 809 810 811 811 812 812 813 813 814 815 815 816 817 817 818 818 819 820 821 821 820 818 817 818 820 822 823 825 826 825 826 827 828 829 829 831 833 833 834 834 834 834 835 835 836 837
772 770 774 771 769 769 765 755 745 746 755 758 760 766 766 761 755 750 748 749 752 757 760 759 763 767 767 768 771 772 775 778 779 781 783 785 788 790 792 795 797 798 800 802 804 805 806 807 808 808 809 810 810 811 812 812 813 813 814 815 815 816 816 817 817 818 818 819 820 821 821 821 820 818 818 820 822 824 826 826 825 825 827 828 829 829 830 832 832 832 833 833 833 834 834 835 836
779 776 776 774 767 765 763 757 748 748 755 759 762 766 763 759 756 753 751 751 754 757 758 759 760 765 766 766 769 771 773 775 777 778 780 783 785 788 790 792 795 797 799 801 803 805 806 807 808 809 809 810 811 811 812 813 814 814 815 815 816 816 817 817 818 818 818 819 820 820 821 821 821 820 819 819 820 822 824 826 825 825 826 827 828 828 828 829 831 831 832 833 833 833 833 834 835
774 773 774 776 771 765 759 752 746 746 755 759 763 767 764 760 759 756 752 751 754 755 756 758 760 763 765 765 768 769 771 772 773 775 777 779 782 784 787 790 792 795 797 800 803 805 806 807 808 809 810 810 811 811 812 813 814 815 815 816 816 816 817 818 818 818 819 819 819 820 821 821 822 821 821 820 820 820 822 824 825 825 825 825 826 827 826 827 828 830 831 832 832 831 832 833 834
768 770 771 772 773 770 758 751 747 745 756 762 759 763 761 759 759 758 756 754 755 756 756 757 759 761 762 763 765 767 769 769 769 772 774 777 779 782 785 788 790 793 796 797 800 803 805 806 808 809 809 810 811 812 812 813 814 814 815 816 816 816 817 818 818 819 819 820 820 820 821 822 822 822 822 821 821 821 821 822 824 825 825 825 825 826 826 826 826 828 829 830 831 830 830 831 832
767 770 772 772 773 771 760 754 752 748 757 763 759 761 762 758 758 756 756 758 758 757 756 757 757 759 760 760 762 763 765 766 769 772 774 776 779 781 783 786 788 791 793 795 797 801 804 805 807 808 809 810 811 812 812 813 814 814 815 816 816 817 817 818 818 819 819 820 820 820 821 822 822 822 822 821 822 822 822 822 823 824 824 824 824 825 825 826 826 827 828 829 829 829 829 829 830
769 770 773 777 772 768 764 760 758 755 761 768 766 768 767 760 757 755 754 757 758 755 754 754 754 756 758 758 759 760 762 765 768 772 774 776 778 780 782 784 786 788 791 793 795 798 801 804 806 807 808 809 811 812 812 812 813 814 815 816 816 817 817 818 818 818 819 820 820 821 821 822 822 822 821 821 821 822 822 822 823 823 824 824 824 824 824 825 825 826 827 827 827 828 828 828 829
770 771 775 779 772 771 775 769 763 760 764 769 770 772 771 764 760 757 754 754 755 754 752 751 751 753 754 755 757 758 760 764 767 770 772 774 777 779 781 783 785 787 790 792 794 796 798 801 804 806 808 809 810 811 811 812 813 814 815 816 816 817 818 818 818 819 820 820 820 821 821 822 822 821 821 821 821 821 821 822 822 823 823 823 824 824 824 824 825 826 826 826 826 827 828 828 829
771 770 774 777 772 772 775 770 765 764 766 766 770 779 777 767 765 761 754 752 752 752 752 752 751 750 751 752 755 757 758 761 765 768 770 773 775 777 779 781 783 785 788 791 793 794 796 798 801 804 806 808 809 810 810 811 812 814 815 816 817 817 818 818 819 819 820 820 820 821 821 821 821 821 821 822 821 821 821 821 822 822 823 823 824 824 824 824 824 825 825 825 825 826 826 827 828
775 770 767 769 768 768 769 768 769 776 780 769 771 791 788 768 766 764 755 753 752 750 751 752 751 750 751 752 753 755 756 758 761 764 767 770 772 775 778 780 782 784 786 788 791 792 794 797 799 802 805 806 808 809 810 811 812 813 814 815 816 816 817 818 818 819 819 820 820 820 821 821 821 821 821 822 822 821 822 821 822 822 823 823 824 824 824 824 824 824 824 824 824 825 825 826 826
782 770 760 762 764 766 768 769 774 785 787 771 769 791 792 774 765 760 755 754 752 749 750 750 751 751 750 751 751 752 754 756 758 760 764 768 771 774 777 778 780 782 784 786 789 791 793 796 798 801 803 805 807 808 809 810 811 812 813 814 815 815 816 817 818 818 819 819 820 820 820 821 821 821 821 822 822 822 822 822 822 822 822 823 823 824 824 824 824 824 825 824 824 824 824 824 824
780 764 757 760 763 767 769 769 775 779 778 773 770 779 789 783 767 755 753 755 753 750 749 748 748 750 749 749 750 750 751 753 754 758 762 766 769 771 773 775 777 779 782 785 788 790 792 795 797 799 801 803 805 806 808 809 810 811 812 813 814 815 815 816 817 818 818 819 819 820 820 820 821 821 821 822 822 822 822 822 822 822 822 822 822 822 823 823 823 823 823 823 823 823 823 823 823
769 757 756 758 760 765 766 769 775 773 778 787 779 774 790 789 767 753 753 756 756 751 747 745 744 746 747 748 749 748 748 749 751 753 757 761 765 768 769 772 775 778 780 783 786 788 791 794 796 798 800 801 803 805 806 808 809 810 811 812 813 814 815 815 816 817 818 818 819 819 819 820 820 821 821 821 822 822 822 822 822 822 822 822 822 822 822 822 822 822 822 822 822 822 823 823 822
759 754 756 757 758 762 765 770 774 776 787 795 784 777 791 791 770 760 760 758 755 749 744 743 741 742 743 744 746 746 746 748 748 750 753 756 760 764 767 770 773 776 779 781 784 787 790 793 795 797 798 800 801 803 805 807 808 809 810 811 812 813 814 815 815 816 817 817 818 818 819 819 820 820 821 821 821 821 822 822 822 822 822 822 822 821 821 821 821 821 821 821 821 821 821 821 821
754 755 759 762 764 764 767 769 772 786 797 793 782 775 785 791 775 761 759 752 746 743 741 741 740 739 740 739 741 743 745 747 748 749 752 755 758 762 766 770 773 776 778 780 782 785 788 791 793 796 797 798 800 802 804 805 807 808 809 810 811 811 812 813 814 815 816 817 817 818 818 818 819 819 820 820 821 821 821 822 822 822 822 822 822 821 821 821 821 820 820 819 819 820 820 820 820
752 758 764 773 777 774 778 778 780 799 804 787 776 770 779 793 778 756 749 742 737 738 738 739 740 739 737 736 737 739 741 744 746 749 751 754 759 763 766 770 772 775 777 778 780 783 786 789 792 794 796 797 798 800 802 804 806 807 807 809 809 810 811 812 813 814 815 815 816 817 817 818 818 819 819 819 820 820 821 821 821 821 821 821 821 821 821 820 820 820 819 819 818 818 819 819 818
755 761 769 785 794 794 797 796 794 802 797 779 771 772 779 785 770 752 745 738 734 734 733 735 737 738 737 736 735 735 738 741 744 747 750 753 757 761 765 768 770 772 774 775 777 780 783 787 789 792 794 795 797 798 801 803 804 805 806 807 808 809 810 810 811 812 813 814 815 816 816 817 817 818 818 819 819 819 820 820 820 820 820 820 820 821 821 820 820 819 818 818 817 817 817 818 817
760 764 773 789 801 808 811 803 797 798 790 775 767 774 782 776 759 747 742 737 733 731 730 730 730 732 734 734 734 735 736 739 742 745 748 750 753 757 760 763 765 767 769 771 773 776 780 784 787 790 792 794 795 797 799 801 802 804 805 806 807 808 808 809 810 811 812 813 814 814 815 816 816 817 817 818 818 819 819 819 819 819 820 820 820 820 819 819 819 818 818 817 816 816 816 816 816
759 757 764 780 787 797 804 798 796 796 790 780 773 778 783 775 758 743 738 735 731 731 730 729 728 728 729 731 732 734 734 736 739 742 745 747 749 752 755 757 759 762 764 767 770 773 776 780 783 786 789 791 793 795 796 798 800 802 803 805 806 806 807 808 809 810 811 812 812 813 814 814 815 816 816 817 817 818 818 818 818 818 819 819 819 819 819 818 818 818 817 816 816 815 815 815 814
758 751 761 774 771 775 785 785 785 789 793 788 782 779 773 764 752 739 736 736 731 732 731 730 731 729 728 731 732 734 735 735 737 739 742 744 745 748 750 753 755 758 761 764 767 769 772 775 779 782 785 788 790 792 794 796 798 800 801 803 804 805 806 807 808 809 809 810 811 812 812 813 814 814 815 815 816 816 817 817 817 817 817 817 817 817 818 818 818 817 817 816 815 815 814 813 813
761 760 765 762 753 759 776 783 778 784 796 791 781 779 770 762 756 742 739 740 735 735 734 733 734 732 732 733 731 733 734 735 736 738 740 743 744 746 747 750 753 756 759 762 764 767 769 771 775 779 782 785 787 789 791 793 795 798 799 800 802 803 804 805 806 807 808 809 810 810 811 811 812 813 813 814 814 815 815 816 816 816 816 816 816 816 816 816 816 816 815 815 815 814 813 812 812
759 766 760 749 749 756 769 785 787 792 802 792 779 782 778 775 770 750 742 746 743 740 738 737 735 734 736 735 731 731 731 733 735 737 740 743 745 746 747 749 751 753 756 759 762 765 767 769 772 776 779 781 784 786 788 791 793 795 797 798 799 800 802 803 804 805 806 807 808 808 809 810 810 811 812 812 813 813 814 814 814 814 814 815 815 814 814 814 814 814 814 814 813 813 812 811 811
748 754 749 752 767 770 769 782 791 798 804 794 782 781 777 776 771 757 752 753 751 748 745 743 739 738 741 739 735 734 733 733 733 734 738 742 744 747 747 749 751 753 756 758 761 764 766 768 770 774 777 779 782 784 786 789 791 793 794 795 797 798 800 801 802 804 804 805 806 806 807 808 809 810 810 811 811 811 812 812 812 813 813 813 813 813 813 813 812 812 812 812 812 812 811 810 810
742 746 748 751 763 770 772 778 783 790 798 794 788 785 776 767 760 757 758 756 754 754 752 749 746 744 745 743 740 739 740 740 738 736 737 739 742 745 746 748 750 752 754 756 759 761 764 767 769 772 775 778 780 782 784 787 788 790 792 793 795 796 798 799 800 802 802 803 804 805 806 807 807 808 809 809 809 810 810 810 810 811 811 811 811 811 811 811 811 810 810 809 809 810 809 808 808
755 759 761 758 759 764 770 776 777 784 796 799 798 794 779 762 754 756 759 755 753 754 753 752 750 748 749 748 746 745 744 745 744 743 741 739 741 744 745 747 748 749 752 754 756 759 761 765 767 770 773 776 778 780 781 784 785 787 789 791 793 794 796 797 798 800 800 801 802 803 804 805 806 806 807 807 808 808 808 808 808 808 808 809 809 809 809 809 808 808 808 808 807 807 807 806 806
763 767 766 763 762 766 777 785 779 780 792 795 798 798 780 760 754 755 757 756 752 750 750 751 752 751 752 752 752 750 748 747 747 746 745 743 743 744 745 747 749 750 751 753 755 757 759 762 764 767 770 772 774 776 778 780 782 785 786 788 790 792 793 795 796 798 799 800 801 802 803 804 804 805 805 805 806 806 806 806 806 806 806 806 807 806 807 807 806 806 806 805 805 805 805 804 804